Date,TemperatureHighF,TemperatureAvgF,TemperatureLowF,DewpointHighF,DewpointAvgF,DewpointLowF,HumidityHigh,HumidityAvg,HumidityLow,PressureMaxIn,PressureMinIn,WindSpeedMaxMPH,WindSpeedAvgMPH,GustSpeedMaxMPH,PrecipitationSumIn
2013-1-1,49.9,37.1,26.6,17.6,11.9,5.7,44,34,27,30.30,30.21,8,2,13,0.00
2013-1-2,57.7,38.5,23.2,19.2,11.0,5.0,43,31,22,30.27,30.15,6,1,10,0.00
2013-1-3,57.7,36.7,22.1,21.3,9.7,3.1,44,31,20,30.30,30.18,7,1,9,0.00
2013-1-4,56.4,36.5,20.9,20.9,8.5,0.7,42,30,20,30.36,30.24,6,1,8,0.00
2013-1-5,56.3,38.8,22.5,18.9,8.9,1.4,38,28,20,30.36,30.15,5,1,9,0.00
2013-1-6,55.0,45.5,35.5,31.3,22.6,6.6,75,41,26,30.15,29.97,10,5,16,0.00
2013-1-7,65.2,48.4,31.3,29.5,18.7,10.5,77,33,20,30.15,30.03,15,4,22,0.00
2013-1-8,68.1,52.9,36.3,33.3,26.4,18.5,54,37,24,30.24,30.12,7,2,11,0.00
2013-1-9,65.6,51.3,32.1,30.6,26.5,21.0,68,40,27,30.24,29.88,16,4,27,0.00
2013-1-10,55.3,44.6,34.8,34.8,19.2,10.6,55,36,28,30.00,29.80,18,11,28,0.00
2013-1-11,49.8,38.1,31.3,16.6,13.6,10.7,48,37,22,30.09,29.97,8,4,13,0.00
2013-1-12,47.4,34.3,22.1,15.1,10.4,4.8,45,36,27,30.15,30.06,6,2,9,0.00
2013-1-13,42.4,28.7,14.1,11.8,5.9,-1.2,48,36,28,30.21,30.06,10,2,15,0.00
2013-1-14,43.0,29.5,16.6,8.4,2.5,-3.4,36,29,23,30.36,30.21,7,2,10,0.00
2013-1-15,52.0,32.5,17.7,14.9,4.8,-3.4,35,29,21,30.50,30.33,6,1,8,0.00
2013-1-16,58.6,37.2,21.6,21.9,10.2,1.1,40,31,24,30.45,30.33,5,1,8,0.00
2013-1-17,62.4,39.7,21.3,22.0,11.7,4.4,49,32,19,30.39,30.27,6,1,9,0.00
2013-1-18,62.9,41.1,23.8,20.0,10.3,3.6,40,27,18,30.33,30.21,7,1,10,0.00
2013-1-19,64.1,37.7,23.3,19.7,9.0,1.9,37,29,18,30.36,30.24,6,1,9,0.00
2013-1-20,65.4,52.3,35.2,20.8,12.9,2.3,25,21,18,30.30,30.18,6,2,13,0.00
2013-1-21,59.4,41.5,33.4,14.5,5.6,1.3,25,22,17,30.21,30.15,3,1,5,0.00
2013-1-22,68.3,47.2,29.3,21.4,10.7,0.3,31,23,17,30.24,30.15,7,1,9,0.00
2013-1-23,59.2,47.1,34.4,32.5,13.3,4.6,56,26,19,30.21,30.12,5,0,6,0.00
2013-1-24,55.1,50.4,46.5,51.8,45.7,25.8,100,86,39,30.27,30.15,6,1,8,0.00
2013-1-25,59.6,52.1,47.7,52.8,49.1,-99.9,100,91,64,30.27,30.06,4,0,6,0.00
2013-1-26,65.7,54.3,46.4,56.2,45.9,-99.9,100,77,46,30.06,29.85,13,3,22,0.00
2013-1-27,54.8,49.1,42.8,37.6,28.1,20.9,70,45,29,29.97,29.85,20,9,28,0.00
2013-1-28,55.9,44.3,34.8,23.5,18.9,13.5,55,37,25,30.12,29.97,10,5,13,0.00
2013-1-29,59.7,44.4,29.7,30.8,25.8,20.5,73,49,30,30.27,30.06,8,3,12,0.00
2013-1-30,67.0,49.3,33.1,33.0,28.9,26.0,78,49,26,30.36,30.24,6,1,10,0.00
2013-1-31,68.5,50.6,33.5,32.1,29.4,26.9,82,48,25,30.30,30.18,6,2,10,0.00
2013-2-1,69.8,48.5,32.9,32.2,25.7,-99.9,81,47,23,30.27,30.18,6,-3,8,0.00
2013-2-2,68.5,52.8,41.9,31.5,28.9,-99.9,63,43,24,30.33,30.21,5,1,8,0.00
2013-2-8,52.6,45.6,36.5,24.1,21.2,18.3,49,38,29,29.85,29.77,16,8,25,0.00
2013-2-9,57.2,46.7,37.6,24.1,21.0,18.0,50,37,26,30.03,29.83,10,6,17,0.00
2013-2-10,59.7,48.3,28.3,23.8,19.8,14.7,63,33,25,30.06,29.94,10,4,13,0.00
2013-2-11,44.2,38.1,30.9,14.8,8.0,4.2,33,28,23,30.24,30.06,8,2,11,0.00
2013-2-12,61.5,38.2,24.6,21.3,9.6,2.9,36,29,19,30.36,30.21,7,1,10,0.00
2013-2-13,68.9,47.1,27.4,26.2,16.4,7.0,43,30,20,30.30,30.15,7,1,11,0.00
2013-2-14,69.7,53.5,34.9,29.1,22.0,11.5,43,30,22,30.27,30.15,10,3,17,0.00
2013-2-16,52.7,47.8,42.3,15.9,14.1,12.2,29,25,23,30.09,30.03,5,1,8,0.00
2013-2-17,74.3,54.8,35.6,25.0,18.9,8.6,34,25,16,30.03,29.85,8,4,13,0.00
2013-2-18,68.8,53.7,33.8,29.5,24.3,19.5,57,33,22,30.06,29.85,14,5,22,0.00
2013-2-19,56.8,48.1,39.1,33.0,26.5,16.3,79,44,28,29.85,29.59,17,10,27,0.00
2013-2-20,61.6,47.0,36.0,33.0,22.2,17.1,88,39,22,29.94,29.56,13,6,22,0.00
2013-2-21,58.4,44.7,32.8,22.7,18.5,10.7,56,36,22,30.09,29.91,10,4,14,0.00
2013-2-22,64.6,48.3,29.1,24.9,20.4,15.7,61,35,18,30.18,30.09,7,3,11,0.00
2013-2-23,66.8,51.4,37.9,28.8,22.1,13.0,47,33,23,30.27,29.85,20,7,32,0.00
2013-2-24,60.3,47.9,37.0,17.9,12.2,4.5,30,24,19,30.30,30.12,13,6,19,0.00
2013-2-25,65.5,46.7,28.1,20.9,11.4,2.8,33,24,18,30.24,30.00,10,2,13,0.00
2013-2-26,64.7,48.3,30.9,23.3,14.6,4.7,45,27,18,30.24,30.06,8,2,13,0.00
2013-2-27,64.9,48.9,29.5,20.4,12.8,3.4,33,23,18,30.36,30.21,8,2,12,0.00
2013-2-28,71.7,50.6,30.4,24.1,13.9,4.2,32,23,16,30.42,30.33,6,1,9,0.00
2013-3-1,75.8,57.1,37.2,29.3,19.4,8.6,30,23,15,30.45,30.30,8,2,13,0.00
2013-3-2,79.3,60.7,36.4,33.6,23.9,14.0,45,26,15,30.33,30.09,9,3,14,0.00
2013-3-3,72.7,64.0,52.9,34.4,29.9,25.1,40,28,23,30.09,29.91,18,9,28,0.00
2013-3-4,76.2,61.0,45.3,33.4,29.4,23.0,56,32,21,30.09,29.94,7,2,10,0.00
2013-3-5,72.5,58.4,40.6,35.2,27.5,22.7,51,32,23,30.09,29.91,17,6,26,0.00
2013-3-6,63.7,54.3,46.2,35.2,30.2,24.4,65,41,28,30.03,29.91,19,11,29,0.00
2013-3-7,60.1,50.6,41.7,35.4,30.6,26.1,65,47,28,29.94,29.85,15,9,23,0.00
2013-3-8,46.8,40.4,35.2,40.5,34.8,27.1,100,82,53,29.91,29.77,10,3,13,0.00
2013-3-9,66.9,50.0,30.9,45.9,30.5,17.9,100,56,24,30.24,29.91,10,3,14,0.00
2013-3-10,74.8,57.2,41.1,25.4,19.5,12.7,33,24,16,30.33,30.21,8,3,17,0.00
2013-3-11,77.5,56.8,34.5,27.7,24.4,18.8,71,33,15,30.24,30.09,7,2,9,0.00
2013-3-12,82.1,61.9,39.1,28.8,25.4,21.3,58,28,14,30.21,30.09,7,2,11,0.00
2013-3-17,83.5,73.1,63.0,32.9,28.8,25.6,24,20,14,29.97,29.85,18,9,28,0.00
2013-3-18,79.6,65.8,45.9,31.6,26.7,21.3,42,24,15,30.06,29.91,12,4,19,0.00
2013-3-20,76.5,69.3,62.0,34.6,31.7,28.9,32,25,20,30.00,29.88,21,12,34,0.00
2013-3-21,80.3,66.8,53.8,34.7,30.4,24.9,41,27,16,29.94,29.77,16,6,26,0.00
2013-3-23,70.8,64.1,59.2,24.8,21.5,16.9,24,20,17,30.00,29.97,9,5,15,0.00
2013-3-24,78.0,69.7,54.5,26.6,23.1,18.5,26,17,15,30.09,29.94,8,4,12,0.00
2013-3-25,74.7,68.4,64.0,28.4,24.1,19.7,20,19,17,29.94,29.88,8,5,13,0.00
2013-3-26,66.7,65.3,63.7,29.7,29.4,28.8,27,26,24,29.88,29.85,9,6,13,0.00
2013-3-27,72.3,67.2,64.0,31.7,29.5,28.4,27,24,22,29.94,29.88,17,11,25,0.00
2013-3-28,67.7,65.4,63.7,28.8,28.3,27.9,26,25,23,30.06,30.03,9,6,15,0.00
2013-3-29,82.1,68.7,49.3,39.1,32.3,25.8,47,27,14,30.15,30.03,10,4,19,0.00
2013-3-30,82.8,71.0,59.3,37.8,33.3,27.7,35,25,17,30.12,30.00,14,6,20,0.00
2013-3-31,74.3,63.7,56.1,46.6,38.3,31.8,64,40,23,30.06,29.97,17,9,27,0.00
2013-4-1,74.8,62.3,51.8,36.6,32.0,29.3,47,33,21,30.06,29.97,17,7,26,0.00
2013-4-2,80.5,65.0,47.5,37.6,33.3,30.3,53,33,17,30.12,30.00,9,3,13,0.00
2013-4-4,79.0,72.2,63.0,39.2,35.4,30.8,36,26,21,30.06,29.97,16,10,26,0.00
2013-4-5,81.0,68.8,57.8,37.5,34.4,31.1,41,29,20,30.06,29.91,13,6,22,0.00
2013-4-8,65.4,61.0,54.9,28.0,24.7,17.8,30,25,23,29.83,29.62,20,14,27,0.00
2013-4-9,71.6,63.5,49.8,24.2,20.7,17.1,27,19,16,30.09,29.91,21,11,27,0.00
2013-4-10,85.1,68.5,50.2,30.5,23.4,15.2,26,18,13,30.18,30.00,15,5,23,0.00
2013-4-11,85.6,73.8,53.3,36.6,31.2,21.8,34,21,15,29.91,29.80,15,5,23,0.00
2013-4-12,87.3,72.4,56.1,38.6,33.8,28.8,36,25,16,29.94,29.83,10,4,20,0.00
2013-4-13,80.4,73.7,70.6,35.7,32.7,31.1,24,22,20,29.74,29.65,16,9,23,0.00
2013-4-14,86.8,76.0,65.2,38.8,33.0,27.1,24,21,16,29.74,29.59,20,12,31,0.00
2013-4-15,73.5,64.2,54.7,31.7,26.9,23.3,32,24,19,29.74,29.62,23,15,35,0.00
2013-4-16,57.3,51.2,44.2,25.9,20.6,16.7,34,30,26,30.03,29.74,18,11,26,0.00
2013-4-17,68.3,55.6,43.8,21.8,17.5,10.4,29,23,17,30.24,30.03,14,7,26,0.00
2013-4-18,72.6,57.3,39.8,24.0,17.0,8.4,30,21,16,30.30,30.21,8,2,12,0.00
2013-4-19,82.5,63.5,38.5,28.5,20.9,8.3,31,20,14,30.27,30.00,12,3,16,0.00
2013-4-20,88.3,70.6,48.4,35.4,29.7,23.3,39,23,13,30.09,29.97,9,2,12,0.00
2013-4-21,91.5,75.4,57.4,37.1,33.0,29.3,35,22,14,30.09,29.91,11,5,17,0.00
2013-4-22,92.3,76.1,55.0,39.3,33.6,26.6,38,23,14,30.00,29.80,11,3,20,0.00
2013-4-23,81.3,73.8,59.5,54.0,25.2,17.2,80,17,14,30.07,29.87,11,4,107,0.00
2013-4-24,84.0,70.3,51.8,54.2,24.4,18.2,70,19,14,30.00,29.79,11,3,132,0.00
2013-4-25,87.6,69.0,49.2,34.9,29.0,22.7,42,24,13,29.99,29.84,8,2,145,0.00
2013-4-26,91.4,74.4,52.3,37.5,32.9,28.1,51,24,12,30.21,29.96,9,3,102,0.00
2013-4-27,95.3,79.5,59.1,37.8,32.4,28.2,36,20,11,30.22,29.90,8,4,69,0.00
2013-4-28,98.4,80.3,67.1,39.7,34.2,30.7,29,20,11,30.04,29.73,13,5,22,0.00
2013-4-29,97.7,82.5,64.2,42.0,37.4,32.5,38,21,11,29.92,29.61,16,5,23,0.00
2013-4-30,93.7,80.1,66.7,41.1,37.1,32.4,31,22,14,29.78,29.55,20,6,28,0.00
2013-5-1,72.5,68.3,66.0,39.8,28.0,20.1,37,23,16,30.07,29.78,16,8,67,0.00
2013-5-2,84.0,74.4,54.8,29.6,23.9,11.4,19,15,14,30.35,30.11,12,2,22,0.00
2013-5-3,91.9,71.6,44.7,32.0,22.2,6.7,28,16,12,30.26,29.75,8,0,14,0.00
2013-5-4,90.3,76.1,59.3,35.2,29.2,23.0,28,18,12,29.83,29.52,20,5,31,0.00
2013-5-5,67.2,61.4,53.9,40.1,33.6,23.2,58,36,23,29.96,29.71,16,8,247,0.00
2013-5-6,68.1,59.4,50.9,49.5,39.9,35.4,77,50,30,30.02,29.89,17,8,102,0.00
2013-5-7,74.6,61.6,51.2,39.7,37.0,33.9,61,41,26,30.04,29.89,16,5,134,0.00
2013-5-8,79.7,64.6,51.6,40.0,36.8,33.3,56,37,22,30.13,29.94,9,4,132,0.00
2013-5-9,80.9,66.3,56.8,53.3,42.3,35.8,72,44,22,30.16,29.99,25,4,134,0.08
2013-5-10,91.9,72.2,58.8,46.0,42.5,38.8,61,38,17,30.17,29.98,11,3,13,0.00
2013-5-11,96.2,87.3,71.2,41.6,37.1,31.1,26,17,12,30.15,29.96,9,3,15,0.00
2013-5-12,100.2,85.0,66.3,42.8,38.4,33.1,37,20,13,30.19,29.88,9,3,14,0.00
2013-5-13,100.7,87.6,75.0,43.8,38.8,33.6,31,19,12,30.06,29.82,14,6,25,0.00
2013-5-14,94.1,81.2,70.3,39.0,32.9,25.5,27,18,11,29.97,29.75,18,7,27,0.00
2013-5-15,99.3,82.3,69.4,42.3,35.8,28.2,32,20,11,29.94,29.67,13,4,18,0.00
2013-5-16,89.6,82.1,69.6,40.2,33.7,29.0,22,18,15,29.85,29.73,13,8,18,0.00
2013-5-17,89.0,83.6,67.2,35.3,35.1,34.0,30,19,15,29.90,29.73,9,8,11,0.00
2013-5-18,86.9,73.9,58.4,38.7,34.4,30.7,37,24,18,30.00,29.77,12,4,12,0.00
2013-5-19,91.2,76.8,62.4,37.2,32.8,27.2,27,21,15,30.03,29.79,11,4,15,0.00
2013-5-20,87.6,71.9,62.4,32.8,29.0,24.6,25,21,13,30.12,29.87,6,3,9,0.00
2013-5-21,91.7,79.6,69.4,35.8,30.4,26.2,22,17,12,29.96,29.67,17,8,27,0.00
2013-5-22,83.3,77.3,68.7,33.3,29.5,26.9,23,18,14,29.78,29.57,27,14,33,0.00
2013-5-23,82.4,81.5,79.8,28.4,28.3,28.0,15,14,14,29.81,29.63,23,18,24,0.00
2013-5-24,85.1,81.6,79.8,28.7,28.2,28.0,15,14,13,29.90,29.75,14,9,19,0.00
2013-5-25,88.1,82.8,69.4,37.0,30.8,27.0,22,16,13,29.90,29.74,15,9,18,0.00
2013-5-26,89.0,75.4,65.3,40.0,32.7,27.2,29,21,15,29.92,29.77,18,7,28,0.00
2013-5-27,89.2,75.0,60.6,40.1,35.5,32.0,34,25,16,29.96,29.70,16,6,22,0.00
2013-5-28,89.9,76.0,66.2,41.5,38.8,36.2,35,27,18,29.80,29.60,19,6,24,0.00
2013-5-29,89.4,77.0,65.8,43.6,40.4,37.4,37,28,18,29.84,29.58,16,7,23,0.00
2013-5-30,95.7,80.2,62.7,43.5,40.0,35.2,48,26,14,29.86,29.65,15,6,25,0.00
2013-5-31,98.6,83.8,64.4,40.1,35.1,26.0,33,19,11,29.95,29.76,12,3,16,0.00
2013-6-1,103.2,87.5,68.3,35.8,32.3,28.0,23,15,9,29.95,29.65,12,3,14,0.00
2013-6-2,100.4,86.6,70.3,41.5,35.7,28.6,23,17,10,29.82,29.54,16,6,28,0.00
2013-6-3,100.0,85.2,68.7,44.4,38.3,32.8,31,20,13,29.79,29.62,12,5,22,0.00
2013-6-4,101.8,85.5,66.2,45.1,40.8,32.6,38,22,11,29.87,29.66,13,5,16,0.00
2013-6-5,104.9,88.5,71.7,46.7,42.7,38.6,37,22,12,29.93,29.65,14,5,19,0.00
2013-6-6,108.3,92.1,73.2,47.0,41.1,32.5,35,19,9,29.88,29.63,11,4,17,0.00
2013-6-7,110.3,92.9,75.3,45.9,39.9,33.1,32,18,8,29.86,29.59,9,4,16,0.00
2013-6-8,112.1,96.2,72.8,43.9,37.1,31.1,29,14,7,29.80,29.58,16,5,24,0.00
2013-6-9,102.7,92.3,75.7,46.0,38.3,32.6,31,16,9,29.84,29.65,16,7,19,0.00
2013-6-10,95.9,95.9,95.9,32.9,32.9,32.9,11,11,11,29.70,29.70,13,13,13,0.00
2013-6-11,101.3,92.6,77.9,44.2,38.3,30.7,22,15,10,29.93,29.71,14,6,18,0.00
2013-6-12,98.4,86.8,75.3,42.4,37.7,33.4,24,18,11,29.92,29.73,17,7,25,0.00
2013-6-13,95.7,83.9,73.0,37.2,32.6,24.8,23,16,11,29.92,29.72,22,11,33,0.00
2013-6-14,97.7,81.2,60.2,36.2,30.5,23.3,25,17,11,29.98,29.67,13,5,18,0.00
2013-6-15,95.9,82.6,67.8,37.0,31.5,25.8,24,16,11,29.88,29.70,17,7,25,0.00
2013-6-16,81.5,78.5,65.4,32.4,31.3,25.0,23,18,15,29.98,29.83,13,5,19,0.00
2013-6-17,99.3,84.9,78.0,39.7,34.1,31.8,21,16,11,29.96,29.72,14,6,20,0.00
2013-6-18,96.0,81.8,66.7,40.7,33.0,28.7,24,18,11,29.87,29.64,20,9,30,0.00
2013-6-19,94.2,78.7,66.7,37.7,31.7,28.0,24,19,11,29.81,29.64,22,8,28,0.00
2013-6-20,92.8,78.4,63.5,34.2,30.4,26.0,24,18,12,29.87,29.66,16,6,22,0.00
2013-6-21,95.3,79.7,62.6,38.1,32.6,26.2,25,19,11,29.90,29.65,17,6,28,0.00
2013-6-22,98.2,82.7,61.8,39.4,33.7,28.8,34,18,11,29.92,29.67,13,4,16,0.00
2013-6-23,96.4,81.0,68.7,42.8,35.8,30.4,25,20,14,29.79,29.59,23,8,33,0.00
2013-6-24,84.7,77.2,69.2,46.9,39.5,31.2,38,26,20,29.84,29.67,20,11,34,0.00
2013-6-25,95.1,82.8,68.7,48.2,46.3,43.5,46,30,18,29.92,29.74,18,8,29,0.00
2013-6-26,104.5,89.0,73.2,51.9,47.6,43.1,44,26,14,29.99,29.77,13,6,18,0.00
2013-6-27,108.6,91.0,76.4,55.3,49.1,45.0,48,26,13,30.07,29.84,11,5,16,0.00
2013-6-28,110.1,95.4,81.1,52.1,47.6,40.6,36,21,10,29.99,29.74,14,5,16,0.00
2013-6-29,112.2,100.5,81.6,50.7,45.1,40.9,31,17,10,29.92,29.64,12,5,17,0.00
2013-6-30,112.2,108.9,95.3,42.8,41.7,37.9,14,11,10,29.71,29.61,13,6,20,0.00
2013-7-1,114.2,98.6,86.7,47.1,42.3,35.7,21,15,10,29.88,29.65,16,6,20,0.00
2013-7-2,109.9,96.9,78.8,48.5,45.2,40.7,32,18,13,29.94,29.69,29,5,45,0.04
2013-7-3,110.4,98.4,83.1,48.3,43.7,39.1,22,16,11,29.89,29.59,15,6,20,0.00
2013-7-4,111.9,98.2,86.0,48.7,44.7,38.9,22,17,10,29.77,29.55,16,5,24,0.00
2013-7-5,107.2,95.8,82.7,51.0,46.8,39.0,32,20,11,29.75,29.56,13,6,19,0.00
2013-7-6,105.2,92.6,80.7,44.4,39.4,34.9,20,16,12,29.74,29.57,15,6,24,0.00
2013-7-7,105.2,93.7,81.6,43.4,37.9,30.2,20,15,10,29.80,29.63,15,6,22,0.00
2013-7-8,104.9,92.1,80.7,34.8,31.3,26.9,14,12,9,29.95,29.76,15,7,24,0.00
2013-7-9,105.8,92.9,81.1,35.3,31.3,27.4,14,12,9,29.98,29.85,17,7,20,0.00
2013-7-10,105.9,93.7,83.8,43.4,37.6,28.1,18,14,11,29.93,29.76,14,6,20,0.00
2013-7-11,91.2,84.9,80.6,58.5,46.4,39.7,46,27,18,29.99,29.81,12,4,17,0.00
2013-7-12,100.0,86.8,73.2,44.6,39.1,28.0,31,20,12,29.93,29.70,13,5,29,0.00
2013-7-13,102.5,90.2,78.2,40.4,36.4,30.2,20,15,12,29.92,29.75,13,6,18,0.00
2013-7-14,105.4,91.1,76.8,46.4,38.3,32.8,21,16,12,29.95,29.70,14,5,18,0.00
2013-7-15,101.8,90.4,80.2,45.4,36.8,31.4,17,15,12,29.84,29.65,16,8,25,0.00
2013-7-16,99.5,85.7,71.0,37.4,31.6,26.7,19,15,10,29.91,29.73,14,6,18,0.00
2013-7-17,102.7,86.8,68.7,40.1,34.1,27.8,23,16,9,30.05,29.81,12,4,14,0.00
2013-7-18,107.2,90.4,72.5,42.8,36.6,31.9,23,16,9,30.03,29.73,11,4,13,0.00
2013-7-19,109.0,93.4,75.7,42.8,38.8,34.0,23,16,11,29.92,29.63,9,4,18,0.00
2013-7-20,109.2,92.4,77.7,47.9,41.0,34.3,21,17,13,29.84,29.63,15,5,22,0.00
2013-7-21,102.0,90.3,79.7,66.1,50.1,38.9,56,27,18,29.95,29.74,11,4,15,0.00
2013-7-22,99.8,81.6,72.8,71.5,58.9,45.8,89,51,23,30.02,29.83,17,4,24,0.00
2013-7-23,100.4,84.5,69.8,70.6,57.5,47.5,90,46,20,30.07,29.79,12,4,17,0.00
2013-7-24,105.2,91.6,78.9,55.0,49.1,41.8,42,25,15,29.96,29.71,12,5,16,0.00
2013-7-25,106.3,93.2,80.6,49.6,45.6,40.8,30,21,14,29.93,29.76,15,6,18,0.00
2013-7-26,97.8,89.4,81.8,56.9,48.6,41.5,40,25,19,30.02,29.90,13,6,16,0.00
2013-7-27,99.3,86.7,73.9,66.0,57.1,49.0,76,39,20,30.08,29.76,11,4,16,0.00
2013-7-28,100.9,87.0,74.6,61.6,52.2,38.3,61,33,16,29.89,29.68,13,3,23,0.00
2013-7-29,99.6,85.4,67.4,47.6,39.7,30.5,48,22,10,29.96,29.76,16,5,25,0.00
2013-7-30,101.3,88.8,70.7,45.8,42.5,37.5,38,21,15,30.07,29.85,12,5,18,0.00
2013-7-31,100.5,87.4,68.9,44.4,39.0,30.3,38,20,10,30.07,29.79,12,4,18,0.00
2013-8-1,99.5,84.5,73.5,44.2,36.3,31.2,24,19,10,29.95,29.69,19,9,28,0.00
2013-8-2,97.3,83.3,63.6,41.7,34.8,30.3,35,19,11,29.95,29.73,13,4,18,0.00
2013-8-3,100.2,87.8,67.2,38.9,32.4,27.1,23,14,10,29.99,29.75,12,5,18,0.00
2013-8-4,100.9,86.1,69.9,39.4,32.9,27.8,22,16,10,30.00,29.76,13,5,19,0.00
2013-8-5,100.9,86.6,70.3,38.9,32.4,27.6,22,15,10,29.98,29.72,12,5,19,0.00
2013-8-6,101.1,86.6,73.4,43.4,35.0,30.2,21,16,10,29.96,29.75,16,7,23,0.00
2013-8-7,95.5,83.5,73.2,41.1,33.3,26.9,28,17,11,29.98,29.79,19,10,29,0.00
2013-8-8,93.5,81.0,70.5,39.0,33.9,30.7,24,19,11,29.95,29.76,14,8,20,0.00
2013-8-9,93.5,80.2,66.2,40.0,34.6,29.5,33,21,11,29.97,29.75,12,6,16,0.00
2013-8-10,95.1,81.5,66.7,41.7,37.6,32.0,35,22,11,30.01,29.81,11,5,17,0.00
2013-8-11,96.9,83.6,68.5,41.7,37.0,30.2,33,20,11,30.00,29.77,9,5,14,0.00
2013-8-12,101.1,85.9,69.8,43.0,36.9,30.2,32,19,10,29.98,29.75,12,5,16,0.00
2013-8-13,103.4,87.7,70.1,42.5,35.6,30.2,28,17,9,30.00,29.77,9,4,15,0.00
2013-8-14,103.6,88.7,70.7,41.5,34.0,28.0,24,15,9,29.98,29.75,9,4,15,0.00
2013-8-15,103.2,88.7,69.8,44.4,36.6,29.3,24,16,12,30.00,29.77,12,4,16,0.00
2013-8-16,103.6,91.0,75.3,45.8,40.3,33.8,22,17,12,29.99,29.77,14,5,19,0.00
2013-8-17,104.3,90.8,75.5,45.7,40.5,32.6,31,18,9,29.97,29.68,13,5,18,0.00
2013-8-18,105.2,86.6,69.6,57.7,42.7,33.6,40,23,14,30.03,29.73,25,4,35,0.00
2013-8-19,99.1,81.7,67.8,67.6,56.7,45.5,91,48,20,30.09,29.81,12,2,14,0.46
2013-8-20,102.5,88.6,71.6,59.9,46.8,34.3,61,28,12,29.97,29.73,12,4,18,0.00
2013-8-21,101.8,91.2,79.8,45.4,39.1,32.9,20,16,12,29.93,29.75,13,5,18,0.00
2013-8-22,100.4,90.3,75.2,44.4,39.0,30.3,25,17,12,29.99,29.72,16,7,27,0.00
2013-8-23,99.1,86.2,71.6,41.0,36.0,30.8,30,18,10,29.93,29.66,14,6,20,0.00
2013-8-24,97.8,84.2,68.1,42.3,36.7,30.2,36,20,11,29.91,29.66,12,5,17,0.00
2013-8-25,96.2,83.4,66.0,60.4,40.3,32.0,57,24,11,30.02,29.77,13,6,19,0.00
2013-8-26,90.5,78.4,64.7,59.9,55.7,52.2,80,48,28,30.10,29.88,17,5,24,0.46
2013-8-27,93.3,81.6,68.9,60.7,55.8,51.2,70,44,27,30.01,29.75,14,3,20,0.00
2013-8-28,99.3,87.1,72.1,56.0,49.6,42.0,55,30,17,29.94,29.76,19,5,27,0.00
2013-8-29,103.2,89.3,72.6,58.4,47.2,40.5,41,25,15,30.01,29.83,17,6,27,0.00
2013-8-30,101.3,88.5,76.4,59.9,53.3,47.0,42,31,20,30.05,29.86,16,6,24,0.00
2013-8-31,99.6,88.1,76.4,57.1,50.5,41.8,45,29,18,30.01,29.76,19,7,27,0.00
2013-9-1,98.7,87.3,76.8,52.4,48.6,44.1,42,28,17,29.95,29.73,19,9,25,0.00
2013-9-2,99.3,89.0,79.3,53.4,48.1,42.7,40,26,16,29.93,29.73,20,10,27,0.00
2013-9-3,93.9,85.8,78.9,53.2,49.9,43.2,40,30,18,29.97,29.81,12,4,19,0.00
2013-9-4,102.0,88.5,71.7,51.3,46.7,41.7,47,26,15,30.02,29.77,17,5,27,0.00
2013-9-5,98.0,85.3,74.1,48.6,45.4,43.9,35,26,17,29.98,29.89,12,5,20,0.00
2013-9-7,102.2,92.3,73.4,50.9,41.7,37.4,29,18,12,29.98,29.71,19,8,27,0.00
2013-9-8,99.8,83.0,65.6,55.6,47.0,35.8,56,31,16,29.97,29.69,20,5,27,0.00
2013-9-9,98.2,83.4,69.2,58.7,48.0,35.9,66,34,16,29.93,29.63,12,4,17,0.00
2013-9-10,95.5,81.8,67.1,44.6,39.4,34.0,41,23,17,29.92,29.73,19,6,24,0.00
2013-9-11,96.9,81.8,69.2,43.4,38.8,35.5,32,22,16,29.98,29.79,14,5,19,0.00
2013-9-12,97.8,83.2,68.5,44.0,39.4,34.8,33,22,16,29.98,29.73,14,6,24,0.00
2013-9-13,99.5,83.4,64.4,46.3,42.7,39.4,49,26,16,29.94,29.63,11,4,16,0.00
2013-9-14,101.8,87.2,68.1,48.9,43.0,37.6,46,23,12,29.83,29.58,14,5,20,0.00
2013-9-15,100.2,87.3,72.6,47.6,41.3,34.4,37,21,13,29.82,29.66,17,6,27,0.00
2013-9-16,98.0,85.2,69.6,43.2,37.9,33.5,33,20,13,29.92,29.66,20,6,30,0.00
2013-9-17,94.1,81.7,70.3,40.2,33.7,27.9,29,18,11,29.81,29.58,27,13,43,0.00
2013-9-18,94.4,76.7,60.6,40.9,36.0,30.2,43,25,13,29.89,29.68,19,4,30,0.00
2013-9-19,96.0,78.7,63.3,35.2,29.8,25.4,25,18,11,29.94,29.71,12,3,19,0.00
2013-9-20,94.4,77.3,55.7,37.5,30.8,23.2,34,19,11,29.92,29.65,22,6,32,0.00
2013-9-21,86.3,74.0,63.8,39.5,36.3,32.6,38,26,18,29.83,29.66,28,14,36,0.00
2013-9-22,72.5,61.9,57.3,36.5,31.0,27.3,37,32,22,29.88,29.79,20,11,38,0.00
2013-9-24,69.6,69.6,69.6,31.2,31.2,31.2,24,24,24,29.95,29.95,3,3,3,0.00
2013-9-25,69.6,69.6,69.6,31.2,31.2,31.2,24,24,24,29.95,29.95,3,3,3,0.00
2013-9-30,69.6,69.6,69.6,31.2,31.2,31.2,24,24,24,29.95,29.95,3,3,3,0.00
2013-10-1,69.6,69.6,69.6,31.2,31.2,31.2,24,24,24,29.95,29.95,3,3,3,0.00
2013-10-2,69.6,69.6,69.6,31.2,31.2,31.2,24,24,24,29.95,29.95,3,3,3,0.00
2013-10-3,69.6,69.6,69.6,31.2,31.2,31.2,24,24,24,29.95,29.95,3,3,3,0.00
2013-10-4,69.6,69.6,69.6,31.2,31.2,31.2,24,24,24,29.95,29.95,3,3,3,0.00
2013-10-5,69.6,69.6,69.6,31.2,31.2,31.2,24,24,24,29.95,29.95,3,3,3,0.00
2013-10-6,69.6,69.6,69.6,31.2,31.2,31.2,24,24,24,29.95,29.95,3,3,3,0.00
2013-10-7,69.6,69.6,69.6,31.2,31.2,31.2,24,24,24,29.95,29.95,3,3,3,0.00
2013-10-8,69.6,69.6,69.6,31.2,31.2,31.2,24,24,24,29.95,29.95,3,3,3,0.00
2013-10-9,69.6,60.5,50.7,38.0,33.4,30.6,53,37,24,29.95,29.66,32,12,52,0.00
2013-10-10,74.1,59.1,45.8,35.6,32.3,30.2,58,38,22,30.07,29.84,16,7,19,0.00
2013-10-11,78.0,62.0,44.7,35.6,31.7,25.0,63,34,21,30.17,29.92,11,3,17,0.00
2013-10-12,78.6,65.0,46.2,34.3,29.4,20.1,58,29,15,30.11,29.81,25,8,30,0.00
2013-10-13,77.3,65.6,54.5,35.4,30.2,22.6,36,27,18,30.15,29.85,24,8,35,0.00
2013-10-14,76.1,61.2,48.3,33.1,28.1,20.7,48,29,20,30.26,30.02,11,2,19,0.00
2013-10-15,76.6,60.3,45.8,32.4,25.2,18.5,41,27,16,30.23,30.01,12,4,17,0.00
2013-10-16,77.1,59.3,43.7,29.8,21.2,16.2,38,24,15,30.33,30.07,9,2,14,0.00
2013-10-17,82.2,60.2,40.8,28.5,21.6,13.0,37,24,14,30.22,29.93,9,1,12,0.00
2013-10-18,83.4,64.1,48.9,30.8,22.9,16.0,32,22,14,30.21,30.01,11,2,14,0.00
2013-10-19,85.4,63.8,40.8,29.6,21.3,13.5,37,21,13,30.28,29.97,11,2,14,0.00
2013-10-20,89.4,67.1,47.6,32.0,22.5,13.5,29,19,13,30.15,29.83,9,2,12,0.00
2013-10-21,86.1,66.2,47.8,30.2,22.8,15.9,37,20,13,30.16,29.94,14,2,19,0.00
2013-10-22,85.4,64.0,44.6,29.6,22.5,15.2,32,21,13,30.22,29.94,12,2,17,0.00
2013-10-23,86.0,65.3,47.4,31.5,23.5,17.1,31,21,13,30.12,29.86,11,2,14,0.00
2013-10-24,87.2,67.7,47.3,31.5,24.4,17.2,31,21,13,30.10,29.87,9,2,16,0.00
2013-10-25,88.5,70.3,54.1,31.4,25.4,17.8,30,19,13,30.22,30.00,9,2,12,0.00
2013-10-26,86.1,66.5,47.4,30.2,23.5,16.6,31,20,13,30.27,30.01,12,2,16,0.00
2013-10-27,83.3,65.1,46.7,32.9,24.2,16.9,33,22,14,30.16,29.65,24,7,41,0.00
2013-10-28,63.5,54.7,48.2,35.9,29.8,22.5,62,39,26,29.96,29.66,30,15,44,0.00
2013-10-29,64.4,52.4,41.5,35.9,31.6,29.0,70,47,28,30.08,29.88,25,7,137,0.00
2013-10-30,68.7,53.3,41.5,30.1,26.4,19.3,59,37,23,30.24,30.05,9,2,16,0.00
2013-10-31,72.8,53.7,37.4,30.2,23.1,16.5,55,32,19,30.34,30.09,11,2,16,0.00
2013-11-1,75.9,54.8,36.3,32.4,22.5,15.2,44,30,18,30.37,30.09,12,2,17,0.00
2013-11-2,78.0,58.5,37.9,32.8,25.1,19.1,54,30,18,30.27,29.85,14,4,24,0.09
2013-11-3,75.7,59.3,39.7,32.2,25.6,18.5,49,28,18,30.00,29.77,16,3,20,0.00
2013-11-4,69.2,58.3,46.7,31.7,25.6,14.8,47,29,20,30.14,29.83,14,5,20,0.00
2013-11-5,65.4,51.4,37.5,22.4,15.4,7.6,32,24,18,30.46,30.13,16,3,19,0.00
2013-11-6,69.6,50.9,33.0,22.7,15.1,6.4,41,25,17,30.53,30.28,12,2,17,0.00
2013-11-7,75.5,56.0,37.4,25.4,17.6,9.5,32,23,15,30.45,30.10,8,2,11,0.00
2013-11-8,75.2,55.2,37.5,26.7,19.3,12.2,40,25,15,30.27,29.96,9,1,14,0.00
2013-11-9,75.5,54.2,37.0,27.0,18.2,10.5,39,25,15,30.28,30.02,11,1,17,0.00
2013-11-10,77.5,55.0,36.1,26.0,18.0,10.4,39,24,15,30.34,30.10,8,1,9,0.09
2013-11-11,80.6,57.8,40.2,28.5,18.8,12.0,33,23,15,30.35,30.10,8,2,12,0.00
2013-11-12,71.2,56.9,45.8,25.6,18.8,12.3,28,23,17,30.38,30.24,8,1,11,0.00
2013-11-13,80.9,60.4,44.9,28.5,20.5,13.8,28,22,14,30.36,30.04,8,1,12,0.00
2013-11-14,81.1,67.2,50.5,33.5,25.1,17.8,32,21,15,30.21,29.69,24,8,33,0.00
2013-11-15,70.1,64.1,60.6,26.3,24.5,22.6,26,22,17,29.73,29.68,22,12,28,0.00
2013-11-16,68.7,57.4,50.9,33.3,27.6,23.2,36,32,27,29.98,29.70,11,4,17,0.00
2013-11-17,67.8,51.8,36.6,34.5,28.5,23.1,66,42,25,30.31,29.98,11,2,16,0.00
2013-11-18,69.8,53.6,36.8,35.0,31.3,25.0,72,45,27,30.33,30.05,14,4,22,0.00
2013-11-19,65.6,57.2,42.4,35.6,33.5,31.3,72,42,32,30.12,29.94,11,4,14,0.00
2013-11-20,62.7,62.7,62.7,33.2,33.2,33.2,33,33,33,29.95,29.95,4,4,6,0.00
2013-11-21,63.1,51.7,44.7,47.4,37.9,28.9,98,61,38,30.13,29.88,27,10,35,0.66
2013-11-22,46.0,42.4,39.5,36.9,33.1,28.4,86,70,51,30.26,30.13,27,15,38,0.29
2013-11-23,51.0,46.3,42.0,40.0,35.5,30.4,87,67,50,30.30,30.16,12,3,14,0.04
2013-11-24,60.9,47.4,37.7,41.8,36.2,27.8,98,70,31,30.42,30.21,8,1,12,0.00
2013-11-25,66.5,47.3,33.0,42.3,36.2,30.5,98,72,31,30.49,30.25,8,1,11,0.00
2013-11-26,63.5,48.7,35.2,40.3,35.8,29.0,98,67,28,30.48,30.23,11,1,12,0.00
2013-11-27,66.5,50.5,40.1,40.6,36.5,31.1,95,64,29,30.33,30.03,8,1,12,0.00
2013-11-28,61.5,48.5,37.9,39.4,34.6,28.3,96,63,30,30.28,30.06,11,1,19,0.00
2013-11-29,62.6,48.1,37.0,36.3,32.7,28.8,88,59,30,30.41,30.21,9,1,12,0.00
2013-11-30,68.0,51.2,40.8,36.2,30.9,28.1,80,49,24,30.44,30.18,8,2,12,0.00
2013-12-1,70.1,50.6,34.8,32.4,28.0,24.6,77,45,22,30.48,30.25,9,2,12,0.00
2013-12-2,69.0,53.0,34.3,31.2,27.2,18.9,79,42,18,30.39,29.81,19,3,27,0.00
2013-12-3,66.2,63.2,59.3,37.1,27.5,20.1,36,26,17,29.81,29.65,33,23,49,0.00